Wind_Speed
36 37 37 36 36 36 35 34 33 31 28 27 24 23 23 28 34 37 38 37 36 36 34 34 33 31 28 25 25 24 22 23 22 18 12 28 20 22 26 26 20 20 19 24 28
40 40 39 38 36 36 36 38 38 37 35 33 32 30 28 28 31 37 41 42 41 39 36 34 32 29 29 26 24 23 21 21 20 19 14 6 15 29 17 24 23 23 23 23 28
46 47 45 44 43 42 41 39 38 39 41 39 38 37 34 34 34 35 39 41 42 42 41 40 37 34 32 29 25 22 21 20 21 17 19 7 18 22 32 32 27 29 22 26 31
49 50 49 49 48 46 46 45 44 41 42 44 44 43 42 40 42 38 39 40 41 44 43 42 40 38 37 35 32 30 29 28 27 24 26 28 26 25 30 26 22 21 27 28 31
54 54 53 52 51 50 48 48 48 47 45 45 46 48 47 46 47 44 43 43 44 43 44 43 43 42 42 40 37 36 33 31 32 31 29 28 24 5 31 23 26 27 31 30 22
57 57 56 56 56 54 53 52 51 51 50 49 50 50 52 51 52 50 47 47 47 47 47 47 45 43 43 42 43 40 39 37 35 33 31 30 27 25 31 32 32 30 32 26 14
62 61 60 60 60 59 58 57 56 54 53 52 51 53 54 57 55 55 53 51 50 51 50 49 47 46 45 45 44 45 43 41 41 36 34 31 31 29 23 27 30 29 23 13 11
66 66 66 63 62 61 59 59 58 57 57 57 55 54 55 58 59 60 59 58 55 55 56 53 51 50 48 46 46 47 45 44 44 39 37 35 33 27 20 31 26 19 11 12 8
70 70 71 70 68 67 66 64 62 61 61 59 60 60 57 58 60 62 62 62 61 58 58 57 56 54 51 48 46 44 45 48 44 41 37 34 29 26 23 23 20 14 10 11 8
72 72 72 73 72 72 71 71 70 68 66 65 64 63 60 62 62 63 63 64 65 63 62 60 60 58 55 52 52 47 48 49 44 41 37 31 22 27 24 27 20 14 13 12 7
77 74 75 74 73 73 73 73 73 71 71 71 70 67 66 65 65 65 65 65 64 65 65 64 61 58 61 60 57 52 49 46 43 40 36 32 22 26 29 36 33 24 19 13 6
83 78 76 76 76 75 74 73 74 75 75 74 72 71 71 70 69 67 68 69 68 67 68 67 62 65 63 62 62 58 53 50 48 42 37 34 30 29 28 25 24 23 23 15 8
73 80 80 78 77 78 77 75 73 73 75 75 76 75 75 74 74 74 73 71 70 72 72 69 69 70 68 64 62 62 60 59 55 47 39 36 38 42 37 12 23 26 24 18 12
67 73 76 80 79 76 78 78 77 75 77 75 75 75 77 77 78 78 78 78 77 77 76 75 76 75 73 69 66 64 64 66 62 54 44 42 44 43 46 32 31 26 26 21 17
42 59 70 74 78 78 75 75 79 79 82 74 76 78 79 79 76 79 82 82 84 83 80 78 79 80 79 77 75 70 69 69 69 63 52 45 44 45 40 34 28 22 37 29 22
31 39 52 66 73 75 75 75 74 77 82 76 79 80 80 81 81 80 82 83 84 87 87 86 85 83 80 81 80 79 77 73 72 70 58 52 49 46 43 43 46 50 35 37 27
31 29 32 46 60 69 75 76 75 78 76 72 74 79 83 84 81 82 85 88 88 89 89 90 90 88 88 85 82 82 82 78 78 76 64 64 58 54 52 50 51 45 39 38 31
35 31 28 27 41 52 67 74 77 79 76 70 78 76 78 80 80 84 85 88 90 94 93 92 91 93 93 90 88 87 84 84 81 78 72 73 64 61 61 58 58 53 43 34 35
38 34 30 26 27 37 49 65 72 74 73 72 77 77 79 81 80 83 82 85 90 93 92 95 93 99 95 93 96 91 94 83 85 84 78 78 76 74 67 64 62 57 51 38 33
38 35 32 30 28 29 34 42 51 64 71 73 75 76 81 87 85 88 88 90 91 90 87 93 98 102 99 100 99 98 94 94 92 87 83 81 81 79 76 70 67 62 56 48 60
34 32 33 32 34 34 35 36 38 43 52 60 66 71 74 80 80 81 87 91 93 92 91 98 98 98 106 105 97 97 97 100 100 95 88 84 84 83 85 80 74 70 64 56 47
30 26 29 33 37 38 40 40 40 43 45 48 53 57 59 63 67 71 75 81 84 82 84 90 97 95 100 104 104 107 104 106 106 102 95 87 91 94 89 87 81 74 70 66 64
28 24 22 26 32 37 41 43 44 47 51 54 56 59 63 66 68 71 75 79 82 76 81 83 86 90 96 102 106 106 106 107 109 105 104 98 91 90 91 92 89 83 76 72 69
31 26 22 23 26 30 34 39 45 48 51 55 58 60 63 65 68 71 73 77 80 77 80 82 84 87 87 98 109 113 114 114 115 111 106 100 96 100 99 103 96 88 82 76 72
39 28 22 19 20 24 29 33 37 40 44 46 49 51 54 59 64 65 67 70 68 71 70 79 82 87 86 94 101 104 110 114 114 105 108 105 103 105 107 106 97 93 87 85 80
48 35 27 23 21 19 19 21 25 28 31 32 33 37 43 50 54 53 57 60 62 58 58 65 73 81 84 89 93 92 103 112 115 112 110 111 113 114 111 105 102 97 96 94 89
48 37 28 27 23 22 22 23 25 25 26 28 30 31 36 40 44 43 45 45 49 56 51 55 62 71 77 86 92 93 95 106 113 115 111 109 106 115 114 112 106 100 96 95 91
Wind_Direction
258 258 257 256 254 252 249 247 245 242 233 233 232 228 224 214 215 221 221 221 224 223 221 220 219 218 222 225 228 228 219 225 232 233 225 246 270 281 291 294 300 309 319 324 330
259 258 256 256 254 253 252 250 247 244 239 233 231 227 228 229 218 217 220 224 227 229 227 228 228 229 227 225 221 222 219 221 227 228 220 254 270 295 275 289 294 297 303 321 330
259 258 258 257 256 255 253 249 249 247 243 236 233 231 227 227 231 218 218 220 227 229 230 229 229 230 228 224 222 225 221 212 206 210 217 169 255 239 275 293 298 295 310 326 326
261 260 259 257 255 254 254 253 250 248 246 243 236 233 230 229 231 227 222 219 221 228 229 230 231 230 232 230 227 222 218 211 214 217 229 239 254 270 278 292 301 286 316 320 323
261 261 260 258 256 253 252 252 252 249 246 243 241 236 233 233 234 230 227 226 222 223 229 229 231 230 232 232 233 229 226 224 222 223 232 241 250 209 254 270 274 268 301 309 308
261 261 259 258 256 254 253 253 251 249 247 244 241 239 236 233 234 232 231 229 230 224 225 228 229 231 232 232 234 235 233 230 232 234 238 243 247 238 257 272 278 284 289 293 290
259 258 257 256 256 255 253 252 252 249 247 246 243 240 237 236 233 235 233 231 231 231 228 227 227 229 231 233 236 238 238 236 236 238 242 247 250 257 272 289 266 280 275 259 284
259 259 257 254 253 253 252 251 249 249 248 246 245 242 239 237 238 233 233 233 232 231 231 231 230 228 227 230 234 237 239 238 242 244 244 245 253 256 252 220 274 271 228 260 291
257 256 256 255 253 251 250 251 250 249 248 246 245 243 241 238 236 237 235 235 233 232 231 231 232 231 230 227 229 232 235 240 240 242 243 245 251 249 241 233 253 234 235 258 281
256 254 253 253 252 252 251 250 249 248 247 247 245 243 242 240 239 236 235 235 234 234 231 231 232 232 233 233 229 228 233 237 237 238 239 240 236 242 223 221 243 262 245 250 265
256 253 253 250 250 250 249 250 249 247 247 247 245 243 241 241 240 238 237 234 233 233 232 231 230 232 233 233 234 232 232 236 235 234 232 230 218 233 206 194 232 253 240 241 243
259 255 252 251 249 248 248 248 247 246 246 246 245 244 243 242 241 240 239 238 236 233 232 232 232 230 232 234 233 232 231 232 235 230 226 221 207 202 191 203 236 226 235 224 226
252 252 250 250 250 249 248 247 247 247 246 245 244 244 243 242 241 242 241 239 238 237 235 232 232 233 233 232 233 232 231 231 231 231 223 212 199 212 181 170 246 226 229 221 217
256 253 250 248 248 248 248 247 246 246 247 245 245 244 244 242 242 242 241 240 240 238 236 234 233 232 233 233 234 232 230 232 232 231 223 214 203 200 213 200 223 235 235 226 227
271 258 252 248 247 247 247 247 247 246 246 246 248 246 244 244 242 243 242 241 240 238 238 237 237 234 233 233 233 233 231 229 231 230 225 217 208 205 211 204 216 199 251 233 227
288 270 258 250 247 247 246 246 246 247 247 246 247 248 247 246 244 243 243 242 241 240 238 237 235 236 234 233 232 232 232 229 228 228 223 222 217 215 208 203 196 205 232 233 226
316 300 275 254 249 246 245 243 243 246 247 247 248 247 247 247 245 244 244 243 242 241 239 237 237 234 234 235 233 232 231 229 228 227 220 224 222 218 214 212 212 205 218 228 228
314 307 297 272 254 251 245 244 243 244 246 246 246 248 248 248 247 247 247 246 243 241 240 239 237 236 233 232 233 233 232 229 227 227 220 222 220 222 219 215 217 216 220 221 228
308 301 292 281 265 254 251 245 246 247 248 247 247 247 250 249 248 249 247 246 245 243 241 241 238 238 234 233 232 231 232 230 229 226 221 218 219 224 221 218 219 217 218 217 244
300 289 282 275 268 261 254 252 249 248 249 249 251 251 251 251 249 250 248 248 247 246 243 243 238 238 235 233 230 231 229 230 230 227 221 220 218 221 225 221 219 221 217 207 207
302 284 271 265 261 258 255 252 250 252 252 253 252 255 255 255 253 252 254 252 249 248 243 243 240 239 235 233 232 229 230 228 230 227 223 218 219 221 225 223 220 218 219 213 207
318 298 274 264 259 259 258 256 255 256 255 253 252 253 254 253 253 252 249 250 249 245 245 241 240 237 238 234 227 228 225 227 226 226 223 219 220 221 222 224 222 218 219 217 207
330 319 296 275 267 262 260 258 256 254 255 257 257 257 256 256 255 253 252 251 249 246 243 241 240 236 234 234 230 227 226 226 226 225 223 219 218 223 223 223 223 220 217 219 219
346 340 314 288 272 263 259 257 256 257 258 259 260 260 261 261 259 257 255 253 252 245 242 241 238 235 231 233 229 226 223 222 223 220 222 219 218 220 221 223 220 221 218 218 219
351 345 334 314 283 268 262 259 258 257 258 260 260 261 262 262 262 261 260 259 255 251 242 240 235 237 231 230 230 226 226 226 225 219 220 217 216 222 222 221 218 219 218 215 217
344 344 337 328 312 291 276 269 267 267 267 266 269 274 273 272 271 268 266 264 260 255 247 241 238 234 230 231 230 224 224 224 223 220 217 218 216 219 220 222 221 218 219 221 216
337 337 333 324 311 300 292 286 287 285 278 278 281 284 290 283 279 273 270 261 256 255 250 236 231 230 230 228 228 221 218 222 222 218 216 216 217 220 221 219 220 219 220 223 224
Height
10919 10920 10921 10923 10924 10926 10929 10931 10934 10938 10941 10942 10945 10947 10949 10950 10952 10955 10959 10962 10965 10968 10971 10974 10978 10981 10986 10991 10995 10999 11003 11005 11008 11015 11021 11014 11013 11011 11009 11006 11003 11003 11004 11001 10999
10911 10912 10913 10914 10916 10918 10920 10923 10926 10928 10933 10937 10938 10941 10943 10944 10946 10949 10953 10957 10959 10963 10967 10970 10975 10979 10984 10987 10991 10995 10999 11002 11005 11009 11017 11012 11015 10991 10995 11005 11002 11003 11003 11001 10998
10901 10901 10903 10905 10907 10908 10910 10913 10916 10919 10923 10928 10931 10933 10936 10938 10939 10943 10946 10950 10953 10956 10960 10965 10970 10974 10978 10982 10987 10992 10994 10999 11002 11006 11007 11000 11010 11016 11008 11005 11001 11002 11004 11001 10999
10889 10890 10891 10893 10895 10898 10899 10902 10906 10910 10913 10916 10921 10925 10928 10931 10931 10936 10940 10943 10946 10949 10953 10958 10963 10968 10973 10977 10981 10986 10989 10992 10996 11000 11003 11007 11012 11015 11011 11005 11001 11000 11003 11001 10999
10876 10877 10879 10881 10882 10885 10888 10890 10893 10897 10902 10905 10909 10914 10918 10922 10922 10928 10931 10934 10938 10942 10946 10951 10955 10960 10965 10971 10975 10979 10983 10987 10990 10994 10997 11001 11006 11010 10996 11004 11001 11001 11001 11000 10998
10862 10863 10864 10866 10869 10871 10874 10877 10880 10884 10888 10893 10896 10900 10906 10912 10913 10916 10922 10926 10929 10934 10938 10942 10947 10953 10957 10962 10966 10972 10977 10982 10986 10989 10992 10995 10998 11005 11005 11000 10996 10996 10999 10998 10997
10846 10846 10849 10851 10853 10856 10860 10863 10866 10870 10874 10878 10882 10887 10893 10896 10903 10906 10911 10916 10920 10924 10928 10933 10938 10943 10949 10953 10958 10962 10969 10976 10980 10986 10988 10991 10990 10995 11003 10993 10999 10996 10993 10995 10995
10827 10828 10830 10833 10836 10839 10842 10846 10851 10855 10859 10864 10868 10873 10879 10883 10887 10893 10898 10904 10908 10913 10918 10922 10928 10933 10939 10944 10949 10954 10960 10967 10973 10979 10983 10985 10986 10990 10999 10999 10994 10992 10991 10992 10993
10806 10808 10809 10813 10818 10820 10824 10828 10833 10838 10843 10848 10852 10857 10864 10868 10874 10879 10886 10891 10895 10901 10907 10912 10916 10922 10930 10935 10940 10945 10948 10956 10965 10971 10975 10979 10983 10987 10991 10993 10992 10992 10989 10990 10991
10783 10787 10788 10791 10797 10800 10805 10810 10814 10819 10825 10830 10836 10841 10850 10854 10858 10864 10869 10875 10881 10888 10894 10900 10905 10912 10918 10924 10927 10935 10939 10946 10956 10961 10967 10973 10979 10978 10985 10992 10992 10989 10990 10990 10991
10759 10764 10766 10770 10774 10779 10784 10790 10794 10799 10804 10811 10816 10824 10829 10837 10843 10848 10855 10860 10867 10874 10881 10885 10894 10900 10902 10910 10918 10928 10933 10939 10947 10953 10959 10965 10973 10972 10978 10989 10991 10988 10989 10990 10991
10735 10741 10743 10747 10752 10757 10763 10769 10774 10780 10785 10790 10797 10805 10812 10819 10825 10832 10837 10844 10852 10858 10863 10873 10882 10882 10889 10898 10906 10916 10925 10929 10935 10943 10951 10957 10965 10969 10973 10982 10981 10983 10987 10988 10989
10707 10713 10720 10725 10730 10736 10741 10748 10754 10760 10764 10770 10777 10785 10790 10798 10806 10812 10820 10828 10835 10841 10849 10858 10862 10867 10876 10884 10892 10903 10912 10916 10923 10934 10943 10949 10956 10960 10968 10974 10978 10981 10984 10987 10987
10689 10692 10697 10703 10708 10714 10720 10726 10734 10740 10741 10754 10759 10766 10768 10777 10786 10791 10799 10807 10815 10821 10829 10839 10843 10852 10859 10871 10877 10887 10896 10903 10911 10924 10935 10940 10947 10955 10958 10968 10979 10978 10981 10984 10984
10671 10672 10677 10682 10686 10694 10701 10706 10710 10718 10719 10738 10739 10744 10749 10756 10768 10769 10777 10784 10791 10799 10812 10820 10826 10834 10844 10853 10860 10872 10878 10888 10897 10911 10923 10933 10941 10950 10956 10965 10966 10961 10971 10980 10981
10659 10656 10657 10662 10667 10675 10681 10685 10690 10694 10697 10716 10718 10722 10728 10735 10744 10752 10755 10761 10770 10776 10786 10795 10805 10815 10826 10832 10843 10851 10860 10873 10882 10895 10912 10924 10934 10941 10950 10956 10958 10961 10967 10973 10975
10651 10645 10642 10643 10647 10654 10660 10666 10670 10671 10682 10694 10700 10697 10703 10711 10722 10727 10731 10737 10744 10751 10760 10771 10781 10795 10803 10814 10825 10833 10843 10857 10864 10877 10906 10910 10918 10931 10936 10945 10948 10951 10958 10964 10971
10642 10637 10633 10630 10632 10636 10640 10647 10650 10650 10665 10678 10666 10678 10682 10689 10698 10700 10708 10713 10718 10725 10734 10747 10759 10767 10779 10794 10802 10811 10822 10834 10849 10863 10885 10892 10907 10917 10920 10929 10936 10943 10952 10957 10965
10629 10625 10623 10621 10620 10621 10623 10626 10634 10639 10645 10649 10653 10658 10662 10666 10675 10677 10684 10687 10690 10698 10716 10723 10736 10733 10755 10769 10776 10796 10796 10825 10829 10842 10863 10876 10885 10893 10907 10916 10923 10934 10945 10956 10965
10613 10610 10609 10609 10609 10609 10609 10612 10619 10621 10621 10629 10632 10638 10639 10641 10652 10653 10658 10658 10665 10674 10690 10689 10703 10707 10729 10735 10749 10765 10788 10795 10805 10823 10843 10857 10870 10884 10890 10904 10913 10922 10937 10954 10965
10595 10592 10593 10595 10595 10596 10597 10598 10602 10603 10604 10610 10613 10615 10619 10618 10625 10630 10628 10630 10633 10642 10658 10657 10668 10684 10689 10706 10737 10748 10758 10768 10779 10798 10820 10841 10853 10868 10871 10883 10897 10909 10920 10935 10946
10583 10579 10578 10580 10581 10582 10584 10587 10590 10589 10590 10592 10592 10593 10594 10597 10598 10600 10602 10597 10601 10616 10624 10628 10634 10658 10664 10678 10696 10702 10727 10736 10748 10772 10797 10821 10825 10830 10855 10868 10881 10896 10909 10922 10933
10576 10570 10568 10567 10568 10570 10571 10572 10573 10573 10573 10573 10574 10574 10573 10574 10575 10575 10575 10573 10575 10595 10593 10601 10612 10625 10636 10645 10662 10681 10700 10712 10727 10749 10769 10793 10817 10829 10838 10845 10860 10874 10890 10902 10915
10572 10564 10560 10558 10556 10556 10556 10556 10555 10555 10556 10555 10554 10554 10553 10551 10549 10548 10548 10547 10549 10562 10569 10574 10581 10589 10608 10612 10614 10640 10659 10675 10688 10720 10749 10778 10797 10794 10803 10807 10833 10857 10874 10887 10898
10568 10561 10555 10551 10547 10545 10544 10543 10542 10541 10539 10538 10537 10536 10533 10530 10525 10525 10525 10521 10527 10528 10543 10544 10553 10560 10577 10578 10592 10623 10640 10657 10673 10711 10722 10753 10766 10772 10773 10791 10819 10836 10853 10862 10877
10557 10554 10548 10544 10541 10537 10535 10533 10530 10529 10527 10525 10524 10521 10516 10511 10507 10505 10501 10500 10499 10503 10513 10520 10532 10536 10548 10555 10570 10598 10614 10627 10648 10676 10697 10718 10730 10735 10754 10782 10800 10815 10827 10842 10858
10548 10544 10540 10536 10534 10530 10526 10524 10521 10520 10517 10514 10512 10508 10500 10493 10488 10485 10481 10479 10479 10480 10485 10493 10505 10509 10525 10529 10536 10562 10587 10600 10618 10645 10674 10697 10729 10716 10734 10754 10773 10800 10816 10829 10847